Location: Mentone
(34.5413°N, 85.5351°W)
Time: 17:26:18
(UTC-06:00)

Centaur AC-72 - Visible Passes

Search period start: 17 January 2017 00:00
Search period end: 27 January 2017 00:00
Orbit: 1121 x 35235 km, 19.5° (Epoch: 16 January)

Date Brightness Start Highest point End Pass type
(mag) Time Alt. Az. Time Alt. Az. Time Alt. Az.
18 Jan 6.4 03:04:28 23° SW 04:01:30 31° SSW 09:41:20 10° SW visible
19 Jan 7.6 00:21:25 40° S 00:21:25 40° S 09:41:33 10° SE visible
19 Jan 5.1 20:55:31 10° WSW 21:38:22 15° ESE 06:12:45 10° SE visible
20 Jan 4.4 18:04:31 10° SW 18:09:28 27° SSE 18:17:32 10° ESE visible
22 Jan 6.4 02:50:49 24° SW 03:46:10 31° SSW 12:25:38 10° SE visible
23 Jan 6.5 00:07:47 38° SSE 00:07:47 38° SSE 09:26:16 10° SE visible
23 Jan 5.2 20:39:51 10° WSW 21:24:45 13° ESE 05:56:05 10° SE visible
24 Jan 4.4 17:48:44 10° SW 17:53:38 26° SSE 18:01:22 10° ESE visible
26 Jan 6.5 02:37:11 24° SW 03:30:59 31° SSW 12:10:15 10° SE visible
